This is the latest recevied weather packets stored in our database for station/object F4IKI-10. If no packets are shown the sender has not sent any weather packets the latest 10 day(s).
| Time | Temp. | Humidity | Pressure | Rain* | Wind** | Luminosity | Snow |
|---|---|---|---|---|---|---|---|
| 1777663698 | 22.78° C | 65% | 1021.6 hPa | - | - | - | - |
| 1777662798 | 22.78° C | 65% | 1021.5 hPa | - | - | - | - |
| 1777661898 | 22.78° C | 64% | 1021.5 hPa | - | - | - | - |
| 1777660998 | 22.78° C | 64% | 1021.5 hPa | - | - | - | - |
| 1777660098 | 22.78° C | 63% | 1021.6 hPa | - | - | - | - |
| 1777659197 | 22.78° C | 65% | 1021.4 hPa | - | - | - | - |
| 1777658297 | 22.22° C | 66% | 1021.5 hPa | - | - | - | - |
| 1777657397 | 21.67° C | 65% | 1021.4 hPa | - | - | - | - |
| 1777656497 | 22.22° C | 66% | 1021.6 hPa | - | - | - | - |
| 1777655600 | 21.67° C | 67% | 1021.6 hPa | - | - | - | - |
| 1777654696 | 21.67° C | 66% | 1021.7 hPa | - | - | - | - |
| 1777653796 | 21.67° C | 64% | 1021.7 hPa | - | - | - | - |
| 1777652896 | 21.67° C | 64% | 1021.6 hPa | - | - | - | - |
| 1777651996 | 21.67° C | 65% | 1021.8 hPa | - | - | - | - |
| 1777651096 | 21.11° C | 68% | 1022 hPa | - | - | - | - |
| 1777650196 | 20.56° C | 69% | 1021.9 hPa | - | - | - | - |
| 1777649296 | 20.56° C | 69% | 1022.1 hPa | - | - | - | - |
| 1777648396 | 20.56° C | 69% | 1022.2 hPa | - | - | - | - |
| 1777647496 | 20.56° C | 69% | 1022.2 hPa | - | - | - | - |
| 1777646595 | 20.56° C | 69% | 1022.3 hPa | - | - | - | - |
| 1777645695 | 20.56° C | 69% | 1022.5 hPa | - | - | - | - |
| 1777644795 | 21.11° C | 69% | 1022.5 hPa | - | - | - | - |
| 1777643895 | 21.11° C | 69% | 1022.7 hPa | - | - | - | - |
| 1777642995 | 21.11° C | 68% | 1022.8 hPa | - | - | - | - |
| 1777642095 | 20.56° C | 69% | 1023 hPa | - | - | - | - |
* Rain since midnight (hover to see other rain measurements)
** Current wind speed in m/s (hover to see current wind gust speed)